Вернуться в каталог

SL-12 DEB

LostHEO
NORAD 27918·DEBRIS·🇷🇺 Russia

Запущен Sep 16, 1987 с Baikonur Cosmodrome

Loading…

Ближайшие Пролёты (ближайшие 24 часа)

TLE

УстаревшееSource: Space-Track

Эпоха: Jul 27, 2026, 03:04 UTC

1 27918U 87079AB  26208.12834948 -.00001742  00000-0 -36235-1 0  9991
2 27918  66.1284  50.8695 5314742 275.5172  28.9465  4.49370959219190

Отслеживайте SL-12 DEB в реальном времени с AllMySat

Download on the App Store